Content
SEND FEEDBACK

Daily
Averages
Monthly
Summary
United States of America

MILAN, MICHIGAN


Home > North America > United States > Michigan
Elevation: 660 feet     Latitude: 42 05N     Longitude: 083 35W

WEATHER
 
SELECT A DAY
Number of Records: 205,637;   Date Range: 1/1/95 - 10/17/14
 
SHARE

PRINT THIS DATA

[ ← Previous Day ]
WEATHER ALMANAC - AUGUST 7, 2014
[ Next Day → ]
[ °C ]   °F
Weather ElementAverageHighLow
Temperature72.4 °F87.1 °F (4:53 pm)57 °F (4:53 am)
Dewpoint54.6 °F57.9 °F (4:26 am)50 °F (5:53 pm)
Humidity57.3 %84 % (12:53 am)29 % (5:53 pm)
Barometer30.09 in30.12 in (8:53 am)30.06 in (10:53 pm)
Wind Speed4 mph9.2 mph (1:53 pm)
Weather ElementAverage
Visibility9.6 mi
Wind DirectionESE (107.5 °)

Weather ElementTotal
Precipitation---
Cooling Degree Days7.1 (Base 65)
Growing Degree Days22.1 (Base 50)
Averaged from 24 records on August 7, 2014
WEATHER CONDITIONS BREAKOUT
WIND DIRECTION BREAKOUT
WEATHER BY HOUR - AUGUST 7, 2014
[ °C ]   °F
Local TimeTemperatureDewpointHumidityBarometerVisibilityWind DirectionWind SpeedGust SpeedPrecipitationEventsConditions
12:53 AM60.1 °F54.0 °F80 %30.08 in10.0 miCalmClear
1:53 AM60.1 °F54.0 °F80 %30.08 in10.0 miCalmClear
2:53 AM59.0 °F53.1 °F81 %30.08 in10.0 miCalmClear
3:53 AM57.9 °F53.1 °F84 %30.08 in9.0 miCalmClear
4:53 AM57.0 °F52.0 °F83 %30.08 in7.0 miCalmClear
5:53 AM57.9 °F52.0 °F81 %30.09 in10.0 miCalmClear
6:53 AM59.0 °F53.1 °F81 %30.10 in8.0 miCalmClear
7:53 AM64.0 °F55.9 °F75 %30.11 in7.0 miCalmClear
8:53 AM70.0 °F57.9 °F65 %30.12 in10.0 miWest (280°)4.6 mphClear
9:53 AM75.9 °F57.0 °F52 %30.12 in10.0 miWNW (290°)6.9 mphClear
10:53 AM79.0 °F55.0 °F44 %30.12 in10.0 miNNW (340°)6.9 mphClear
11:53 AM82.0 °F54.0 °F38 %30.12 in10.0 miNNE (30°)4.6 mphClear
12:53 PM81.0 °F53.1 °F38 %30.11 in10.0 miNorth (10°)5.8 mphClear
1:53 PM84.9 °F55.0 °F36 %30.10 in10.0 miNorth (350°)9.2 mphScattered Clouds
2:53 PM84.0 °F53.1 °F34 %30.09 in10.0 miVariable4.6 mphScattered Clouds
3:53 PM84.9 °F53.1 °F33 %30.08 in10.0 miNorth (10°)8.1 mphMostly Cloudy
4:53 PM87.1 °F53.1 °F31 %30.07 in10.0 miNNW (330°)6.9 mphClear
5:53 PM86.0 °F50.0 °F29 %30.06 in10.0 miNorth (350°)4.6 mphPartly Cloudy
6:53 PM84.0 °F55.0 °F37 %30.06 in10.0 miSSE (150°)6.9 mphMostly Cloudy
7:53 PM80.1 °F57.9 °F47 %30.06 in10.0 miESE (120°)6.9 mphOvercast
8:53 PM75.0 °F55.9 °F51 %30.06 in10.0 miEast (90°)6.9 mphPartly Cloudy
9:53 PM71.1 °F57.0 °F61 %30.08 in10.0 miESE (110°)4.6 mphScattered Clouds
10:53 PM69.1 °F57.9 °F68 %30.09 in10.0 miNE (50°)3.5 mphPartly Cloudy
11:53 PM69.1 °F57.0 °F65 %30.10 in10.0 miENE (70°)4.6 mphScattered Clouds
Hourly data recorded from KYIP, located miles away from Milan, Michigan







STORIES FROM OUR PARTNERS